Alturas, CA

3:59 AM PST on January 23, 2017 (GMT -0800)
Alturas Municipal

Weather History for KAAT - April, 2013

Change the Weather History Date:

Thursday, April 11, 2013

  Actual Average Record
Temperature  
Mean Temperature 43 °F 42 °F  
Max Temperature 60 °F 56 °F 85 °F (1934)
Min Temperature 26 °F 28 °F 15 °F (1933)
Degree Days  
Heating Degree Days 22 23  
Month to date heating degree days 219 264  
Since 1 July heating degree days 5572 5956  
Cooling Degree Days 0 0  
Month to date cooling degree days 0 0  
Year to date cooling degree days 0 0  
Moisture  
Dew Point 26 °F    
Average Humidity 53    
Maximum Humidity 89    
Minimum Humidity 16    
Precipitation  
Precipitation 0.00 in 0.04 in 0.68 in (1948)
Month to date precipitation 1.12 0.52  
Year to date precipitation 2.17 5.14  
Sea Level Pressure  
Sea Level Pressure 30.08 in    
Wind  
Wind Speed 2 mph (North)    
Max Wind Speed 13 mph    
Max Gust Speed 16 mph    
Visibility 10 miles    
Events      
T = Trace of Precipitation, MM = Missing Value Source: NWS Daily Summary

Daily Weather History Graph

Daily Weather History Graph

Search for Another Location

Airport or City:

Trip Planner

Search our weather history database for the weather conditions in past years. The results will help you decide how hot, cold, wet, or windy it might be!

Date:

Astronomy

Apr. 11, 2013 Rise Set
Actual Time 6:28 AM PDT 7:38 PM PDT
Civil Twilight 5:59 AM PDT 8:07 PM PDT
Nautical Twilight 5:25 AM PDT 8:41 PM PDT
Astronomical Twilight 4:50 AM PDT 9:17 PM PDT
Moon 7:01 AM PDT (4/11) 9:19 PM PDT (4/11)
Length of Visible Light 14h 07m
Length of Day
13h 10m
New Moon, 2% of the Moon is Illuminated
Apr 11
New Moon
Apr 18
First Quarter
Apr 25
Full
May 2
Last Quarter
May 9
New

Hourly Weather History & Observations

Time (PDT) Temp. Windchill Dew Point Humidity Pressure Visibility Wind Dir Wind Speed Gust Speed Precip Events Conditions
12:55 AM 39.0 °F - 34.0 °F 82% 30.13 in 10.0 mi Calm Calm - N/A   Clear
1:55 AM 35.1 °F - 32.0 °F 89% 30.13 in 10.0 mi Calm Calm - N/A   Clear
2:55 AM 33.1 °F 30.0 °F 28.9 °F 85% 30.12 in 10.0 mi WSW 3.5 mph - N/A   Clear
3:55 AM 32.0 °F 28.7 °F 28.0 °F 85% 30.13 in 10.0 mi NE 3.5 mph - N/A   Clear
4:55 AM 30.9 °F - 27.0 °F 85% 30.15 in 10.0 mi Calm Calm - N/A   Clear
5:55 AM 30.9 °F - 27.0 °F 85% 30.14 in 10.0 mi Calm Calm - N/A   Clear
6:55 AM 28.0 °F - 25.0 °F 88% 30.16 in 10.0 mi Calm Calm - N/A   Clear
7:55 AM 34.0 °F - 30.0 °F 85% 30.17 in 10.0 mi Calm Calm - N/A   Clear
8:55 AM 37.9 °F - 30.9 °F 76% 30.15 in 10.0 mi Calm Calm - N/A   Clear
10:55 AM 46.9 °F - 28.0 °F 48% 30.13 in 10.0 mi Variable 3.5 mph - N/A   Clear
11:55 AM 51.1 °F - 28.0 °F 41% 30.10 in 10.0 mi Calm Calm - N/A   Clear
12:55 PM 52.0 °F - 26.1 °F 37% 30.09 in 10.0 mi Variable 3.5 mph - N/A   Clear
1:55 PM 53.1 °F - 26.1 °F 35% 30.07 in 10.0 mi Calm Calm - N/A   Clear
2:55 PM 55.9 °F - 23.0 °F 28% 30.04 in 10.0 mi Calm Calm - N/A   Clear
3:55 PM 57.9 °F - 19.0 °F 22% 30.01 in 10.0 mi Variable 3.5 mph - N/A   Clear
4:55 PM 59.0 °F - 14.0 °F 17% 30.01 in 10.0 mi NW 5.8 mph - N/A   Clear
5:55 PM 57.9 °F - 17.1 °F 20% 29.99 in 10.0 mi North 8.1 mph - N/A   Clear
6:55 PM 55.9 °F - 21.0 °F 26% 30.02 in 10.0 mi NNE 8.1 mph - N/A   Clear
7:55 PM 50.0 °F - 23.0 °F 35% 30.01 in 10.0 mi Calm Calm - N/A   Clear
8:55 PM 44.1 °F 41.5 °F 27.0 °F 51% 30.03 in 10.0 mi North 4.6 mph - N/A   Clear
9:55 PM 43.0 °F - 28.0 °F 56% 30.03 in 10.0 mi Calm Calm - N/A   Clear
10:55 PM 37.9 °F 35.5 °F 28.0 °F 68% 30.03 in 10.0 mi South 3.5 mph - N/A   Clear
11:55 PM 35.1 °F - 26.1 °F 70% 30.02 in 10.0 mi Calm Calm - N/A   Clear